Location: Hilton Head Island
(32.2163°N, 80.7526°W)
Time: 15:35:06
(UTC-05:00)

Explorer 11/Cluster Stage 4 - Pass Details

Date: 21 February 2026
Orbit: 463 x 1176 km, 28.8° (Epoch: 6 March)

Event Time Altitude Azimuth Distance (km) Brightness Sun altitude
Rises 10:05:16 0° 221° (SW) 3,565 10.0 34.1°
Reaches altitude 10° 10:08:44 10° 205° (SSW) 2,476 9.5 34.7°
Maximum altitude 10:12:54 20° 160° (SSE) 1,695 9.7 35.3°
Drops below altitude 10° 10:16:34 10° 113° (ESE) 2,122 9.9 35.8°
Sets 10:19:16 0° 96° (E) 2,910 10.1 36.2°
